Lander, WY

7:27 AM MST on February 27, 2017 (GMT -0700)
South Pass

Weather History for KFWZ - July, 2013

Change the Weather History Date:

Monday, July 1, 2013

  Actual Average (KLND) Record (KLND)
Temperature  
Mean Temperature 66 °F -  
Max Temperature 75 °F 83 °F 99 °F (2012)
Min Temperature 57 °F 53 °F 37 °F (1945)
Cooling Degree Days 1    
Growing Degree Days 16 (Base 50)    
Moisture  
Dew Point 41 °F    
Average Humidity 41    
Maximum Humidity 55    
Minimum Humidity 31    
Precipitation  
Precipitation 0.00 in - - ()
Sea Level Pressure  
Sea Level Pressure 30.43 in    
Wind  
Wind Speed 12 mph (North)    
Max Wind Speed 18 mph    
Max Gust Speed 26 mph    
Visibility 10 miles    
Events      
Averages and records for this station are not official NWS values.
T = Trace of Precipitation, MM = Missing Value Source: NWS Daily Summary

Daily Weather History Graph

Daily Weather History Graph

Search for Another Location

Airport or City:

Trip Planner

Search our weather history database for the weather conditions in past years. The results will help you decide how hot, cold, wet, or windy it might be!

Date:

Astronomy

Jul. 01, 2013 Rise Set
Actual Time 5:41 AM MDT 8:56 PM MDT
Civil Twilight 5:07 AM MDT 9:30 PM MDT
Nautical Twilight 4:22 AM MDT 10:15 PM MDT
Astronomical Twilight 3:27 AM MDT 11:09 PM MDT
Moon 1:18 AM MDT (7/1) 3:10 PM MDT (7/1)
Length of Visible Light 16h 23m
Length of Day
15h 14m
Waning Crescent, 35% of the Moon is Illuminated
Jul 1
Waning Crescent
Jul 8
New
Jul 15
First Quarter
Jul 22
Full
Jul 29
Last Quarter

Hourly Weather History & Observations

Time (MDT) Temp. Dew Point Humidity Pressure Visibility Wind Dir Wind Speed Gust Speed Precip Events Conditions
12:15 AM 59.0 °F 37.4 °F 45% 30.41 in 10.0 mi North 12.7 mph - N/A   Clear
12:35 AM 59.0 °F 39.2 °F 48% 30.41 in 10.0 mi North 10.4 mph - N/A   Scattered Clouds
12:55 AM 57.2 °F 41.0 °F 55% 30.41 in 10.0 mi North 13.8 mph - N/A   Scattered Clouds
1:15 AM 59.0 °F 39.2 °F 48% 30.41 in 10.0 mi North 13.8 mph - N/A   Clear
1:35 AM 59.0 °F 39.2 °F 48% 30.41 in 10.0 mi North 12.7 mph - N/A   Clear
1:55 AM 59.0 °F 41.0 °F 51% 30.41 in 10.0 mi North 10.4 mph - N/A   Clear
2:15 AM 59.0 °F 41.0 °F 51% 30.42 in 10.0 mi North 8.1 mph - N/A   Clear
2:35 AM 57.2 °F 41.0 °F 55% 30.42 in 10.0 mi North 11.5 mph - N/A   Clear
2:55 AM 59.0 °F 41.0 °F 51% 30.41 in 10.0 mi North 15.0 mph - N/A   Clear
3:15 AM 59.0 °F 41.0 °F 51% 30.41 in 10.0 mi North 16.1 mph - N/A   Clear
3:35 AM 59.0 °F 41.0 °F 51% 30.41 in 10.0 mi NNW 13.8 mph - N/A   Clear
3:55 AM 59.0 °F 41.0 °F 51% 30.42 in 10.0 mi NNW 12.7 mph - N/A   Clear
4:15 AM 59.0 °F 41.0 °F 51% 30.42 in 10.0 mi North 11.5 mph - N/A   Clear
4:35 AM 59.0 °F 41.0 °F 51% 30.42 in 10.0 mi North 10.4 mph - N/A   Clear
4:55 AM 57.2 °F 41.0 °F 55% 30.42 in 10.0 mi NNW 10.4 mph - N/A   Clear
5:15 AM 57.2 °F 41.0 °F 55% 30.43 in 10.0 mi NNW 9.2 mph - N/A   Clear
5:35 AM 57.2 °F 41.0 °F 55% 30.43 in 10.0 mi NNW 10.4 mph - N/A   Clear
5:55 AM 57.2 °F 41.0 °F 55% 30.44 in 10.0 mi NNW 11.5 mph - N/A   Clear
6:15 AM 57.2 °F 41.0 °F 55% 30.45 in 10.0 mi WNW 6.9 mph - N/A   Clear
6:35 AM 59.0 °F 42.8 °F 55% 30.45 in 10.0 mi NW 5.8 mph - N/A   Clear
6:55 AM 60.8 °F 41.0 °F 48% 30.45 in 10.0 mi West 3.5 mph - N/A   Clear
7:15 AM 62.6 °F 42.8 °F 48% 30.45 in 10.0 mi NNW 5.8 mph - N/A   Clear
7:35 AM 62.6 °F 42.8 °F 48% 30.45 in 10.0 mi WNW 3.5 mph - N/A   Clear
7:55 AM 62.6 °F 42.8 °F 48% 30.46 in 10.0 mi WNW 4.6 mph - N/A   Clear
8:15 AM 66.2 °F 42.8 °F 43% 30.46 in 10.0 mi NW 4.6 mph - N/A   Clear
8:35 AM 68.0 °F 42.8 °F 40% 30.46 in 10.0 mi North 6.9 mph - N/A   Clear
8:55 AM 68.0 °F 42.8 °F 40% 30.46 in 10.0 mi NNE 10.4 mph - N/A   Clear
9:15 AM 68.0 °F 42.8 °F 40% 30.46 in 10.0 mi NNW 9.2 mph - N/A   Clear
9:35 AM 68.0 °F 42.8 °F 40% 30.46 in 10.0 mi North 9.2 mph 17.3 mph N/A   Clear
9:55 AM 68.0 °F 42.8 °F 40% 30.46 in 10.0 mi NNE 10.4 mph - N/A   Clear
10:15 AM 68.0 °F 42.8 °F 40% 30.46 in 10.0 mi NNE 9.2 mph 16.1 mph N/A   Clear
10:35 AM 69.8 °F 42.8 °F 38% 30.46 in 10.0 mi NE 10.4 mph - N/A   Clear
10:55 AM 69.8 °F 42.8 °F 38% 30.46 in 10.0 mi NE 10.4 mph - N/A   Clear
11:15 AM 69.8 °F 42.8 °F 38% 30.46 in 10.0 mi NNE 9.2 mph 16.1 mph N/A   Clear
11:35 AM 71.6 °F 42.8 °F 35% 30.46 in 10.0 mi NE 11.5 mph - N/A   Clear
11:55 AM 71.6 °F 42.8 °F 35% 30.46 in 10.0 mi North 9.2 mph - N/A   Clear
12:15 PM 71.6 °F 42.8 °F 35% 30.45 in 10.0 mi NE 12.7 mph 16.1 mph N/A   Clear
12:35 PM 71.6 °F 42.8 °F 35% 30.45 in 10.0 mi NNE 9.2 mph 16.1 mph N/A   Clear
12:55 PM 73.4 °F 42.8 °F 33% 30.44 in 10.0 mi NE 12.7 mph 16.1 mph N/A   Clear
1:15 PM 73.4 °F 42.8 °F 33% 30.44 in 10.0 mi ENE 12.7 mph 17.3 mph N/A   Clear
1:35 PM 73.4 °F 42.8 °F 33% 30.44 in 10.0 mi NNE 11.5 mph - N/A   Clear
1:55 PM 73.4 °F 42.8 °F 33% 30.44 in 10.0 mi NE 11.5 mph 16.1 mph N/A   Clear
2:15 PM 73.4 °F 42.8 °F 33% 30.44 in 10.0 mi NNE 9.2 mph 16.1 mph N/A   Scattered Clouds
2:35 PM 73.4 °F 42.8 °F 33% 30.44 in 10.0 mi NNE 9.2 mph 19.6 mph N/A   Clear
2:55 PM 75.2 °F 42.8 °F 31% 30.43 in 10.0 mi North 13.8 mph 17.3 mph N/A   Clear
3:15 PM 73.4 °F 41.0 °F 31% 30.43 in 10.0 mi North 12.7 mph 21.9 mph N/A   Clear
3:35 PM 75.2 °F 42.8 °F 31% 30.43 in 10.0 mi North 15.0 mph 24.2 mph N/A   Clear
3:55 PM 73.4 °F 42.8 °F 33% 30.43 in 10.0 mi North 15.0 mph 19.6 mph N/A   Clear
4:15 PM 71.6 °F 41.0 °F 33% 30.43 in 10.0 mi NNE 15.0 mph 20.7 mph N/A   Clear
4:35 PM 71.6 °F 42.8 °F 35% 30.43 in 10.0 mi North 10.4 mph 19.6 mph N/A   Clear
4:55 PM 71.6 °F 42.8 °F 35% 30.43 in 10.0 mi North 18.4 mph 23.0 mph N/A   Clear
5:15 PM 71.6 °F 42.8 °F 35% 30.42 in 10.0 mi North 13.8 mph 23.0 mph N/A   Clear
5:35 PM 71.6 °F 42.8 °F 35% 30.41 in 10.0 mi North 11.5 mph 19.6 mph N/A   Clear
5:55 PM 69.8 °F 42.8 °F 38% 30.41 in 10.0 mi North 15.0 mph 20.7 mph N/A   Clear
6:15 PM 71.6 °F 41.0 °F 33% 30.41 in 10.0 mi North 17.3 mph 21.9 mph N/A   Clear
6:35 PM 69.8 °F 41.0 °F 35% 30.42 in 10.0 mi North 13.8 mph 24.2 mph N/A   Clear
6:55 PM 69.8 °F 41.0 °F 35% 30.41 in 10.0 mi North 13.8 mph 24.2 mph N/A   Clear
7:15 PM 68.0 °F 41.0 °F 37% 30.41 in 10.0 mi North 12.7 mph 20.7 mph N/A   Clear
7:35 PM 68.0 °F 41.0 °F 37% 30.41 in 10.0 mi North 16.1 mph 23.0 mph N/A   Clear
7:55 PM 68.0 °F 41.0 °F 37% 30.41 in 10.0 mi North 16.1 mph 23.0 mph N/A   Clear
8:15 PM 68.0 °F 39.2 °F 35% 30.41 in 10.0 mi North 13.8 mph - N/A   Scattered Clouds
8:35 PM 66.2 °F 39.2 °F 37% 30.41 in 10.0 mi North 13.8 mph 20.7 mph N/A   Scattered Clouds
8:55 PM 66.2 °F 39.2 °F 37% 30.40 in 10.0 mi North 17.3 mph 26.5 mph N/A   Clear
9:15 PM 66.2 °F 37.4 °F 35% 30.42 in 10.0 mi North 13.8 mph - N/A   Clear
9:35 PM 64.4 °F 37.4 °F 37% 30.42 in 10.0 mi North 12.7 mph - N/A   Clear
9:55 PM 64.4 °F 37.4 °F 37% 30.43 in 10.0 mi North 17.3 mph - N/A   Clear
10:15 PM 64.4 °F 37.4 °F 37% 30.43 in 10.0 mi North 16.1 mph - N/A   Clear
10:35 PM 64.4 °F 37.4 °F 37% 30.43 in 10.0 mi North 11.5 mph - N/A   Clear
10:55 PM 62.6 °F 37.4 °F 39% 30.43 in 10.0 mi North 13.8 mph - N/A   Clear
11:15 PM 62.6 °F 37.4 °F 39% 30.43 in 10.0 mi North 13.8 mph - N/A   Clear
11:35 PM 62.6 °F 37.4 °F 39% 30.43 in 10.0 mi North 13.8 mph 17.3 mph N/A   Clear
11:55 PM 60.8 °F 39.2 °F 45% 30.43 in 10.0 mi North 12.7 mph - N/A   Clear